[Date Prev][Date Next][Thread Prev][Thread Next] - [Date Index][Thread Index][Author Index]

2 Line ISS Keps 5-11



ISS
1 25544U 98067A   04132.47262675  .00009020  00000-0  80228-4 0  7565
2 25544  51.6263 152.8504 0011039 122.6354  30.1586 15.69322013312558


----
Via the sarex mailing list at AMSAT.ORG courtesy of AMSAT-NA.
To unsubscribe, send "unsubscribe sarex" to Majordomo@amsat.org



AMSAT Top AMSAT Home